Wetbulb
54.54 54.45 54.31 54.37 54.26 54.13 54.25 54.15 54.48 54.72 55.12 55.65 55.98 56.18 56.41 56.56 56.49 50.27 45.79 49.57 53.50 59.55 59.93 51.42 49.15 49.07 47.58 45.94 50.59 52.36 44.07 41.82 44.54 45.65 46.86 51.78 50.15 52.61 55.60 53.07 54.63 53.92 54.77 59.33 66.09
53.99 53.96 54.07 54.34 54.05 53.82 53.85 54.06 54.37 54.60 54.88 55.34 55.52 55.80 56.03 56.44 51.50 48.24 54.82 59.60 60.79 60.56 46.03 45.98 45.99 46.25 42.54 44.38 46.27 46.61 40.52 44.63 50.56 50.92 49.74 52.38 51.37 52.73 52.94 53.33 53.36 54.44 56.66 59.35 63.67
54.07 54.11 54.02 54.06 54.23 53.81 53.64 53.76 53.99 54.43 54.58 55.02 55.14 55.42 56.13 56.00 47.56 49.93 61.04 60.76 62.03 59.22 50.58 48.52 47.76 44.74 39.86 42.19 42.94 44.71 42.79 48.56 50.44 50.69 51.67 50.63 50.73 53.37 51.83 50.65 52.84 52.77 53.97 55.93 57.49
54.14 54.12 53.78 53.53 53.59 53.15 53.52 53.63 53.84 54.28 54.38 54.68 55.00 55.56 56.42 51.30 39.47 51.06 62.60 63.37 62.04 56.23 51.83 49.24 45.19 38.09 38.45 38.47 41.89 38.01 43.82 44.81 46.53 48.39 49.09 48.43 50.96 50.26 51.30 51.99 55.44 55.56 56.49 55.37 56.41
52.87 53.32 53.83 53.68 53.14 52.77 52.71 53.08 53.48 53.76 53.89 54.32 54.98 56.11 51.35 45.83 48.01 55.61 64.05 62.42 58.69 55.25 49.99 46.86 40.70 38.34 34.27 37.41 40.54 38.35 41.13 43.68 44.38 44.25 44.87 46.41 45.60 46.29 46.91 50.24 52.59 53.26 54.59 55.60 55.37
53.86 53.87 53.89 53.58 53.04 52.76 52.47 52.58 52.91 53.41 53.78 54.48 55.40 56.49 47.68 38.53 53.19 55.62 56.36 55.22 54.45 50.03 47.81 46.03 42.37 43.31 38.75 37.68 36.64 40.14 40.13 41.19 42.99 43.27 43.97 44.04 44.99 46.73 48.35 51.43 51.15 51.52 51.70 53.76 54.97
53.62 54.21 53.64 53.19 52.99 52.96 52.96 52.79 52.79 53.35 54.07 54.72 55.75 54.44 46.51 40.27 51.58 51.70 55.14 49.00 50.04 50.77 46.28 47.20 46.65 42.93 41.07 38.42 39.74 39.92 36.23 39.09 41.24 42.57 42.20 45.26 41.58 43.28 48.40 50.23 49.52 50.38 51.27 52.91 54.78
53.49 54.19 53.90 53.35 53.25 53.01 53.04 53.61 53.37 53.74 54.40 54.82 56.42 50.71 41.41 51.29 52.51 50.10 48.95 48.81 48.35 49.04 47.68 47.37 46.52 42.44 39.49 39.75 39.62 35.54 32.95 28.92 37.06 40.50 42.08 42.75 37.71 44.82 47.95 47.72 48.16 48.83 50.09 51.12 51.75
54.05 54.02 53.92 52.97 53.06 53.33 53.35 53.33 53.80 54.61 55.08 55.08 49.25 45.79 44.31 55.71 48.63 49.80 47.06 45.77 46.90 48.62 48.22 51.03 44.74 40.52 40.28 34.35 31.15 32.30 27.67 30.16 35.16 40.16 40.07 39.29 35.96 42.58 45.63 45.40 45.10 45.86 47.21 48.25 48.06
54.43 53.92 53.47 53.08 52.81 53.31 52.97 52.77 52.50 53.02 53.94 54.95 52.33 44.05 46.78 47.23 48.43 48.22 47.20 47.54 46.18 46.31 45.40 44.16 38.77 35.54 33.28 31.60 25.82 29.82 29.39 32.27 32.83 38.12 39.42 37.70 38.55 41.87 44.36 44.78 44.44 44.52 45.67 46.73 47.99
54.19 53.76 52.93 52.52 53.25 52.92 49.99 45.05 42.45 41.56 46.63 42.77 46.97 46.48 50.07 53.19 50.34 46.50 48.61 47.81 46.97 42.34 35.83 38.36 33.58 30.08 33.56 35.29 36.70 35.40 33.63 32.59 36.14 39.88 37.19 36.88 37.94 40.78 42.71 42.54 42.45 43.74 44.73 45.33 46.31
53.16 53.31 52.93 53.05 52.92 52.55 46.67 45.09 45.65 45.15 39.48 46.52 46.42 48.59 51.04 50.99 44.99 45.76 49.01 42.67 41.40 35.26 37.32 34.80 30.35 37.21 38.94 38.12 36.98 35.46 32.57 32.32 36.60 40.60 38.93 37.05 37.38 41.08 41.92 41.33 41.94 42.96 43.78 44.37 45.18
52.74 52.57 52.44 52.35 51.97 47.83 44.89 47.12 50.09 45.19 37.27 42.82 46.77 45.76 46.14 47.59 43.99 43.15 46.21 43.05 38.68 34.90 34.18 31.54 35.81 40.01 38.05 36.88 36.06 33.69 32.46 33.17 33.95 38.00 38.89 36.25 34.74 36.67 39.89 41.57 42.59 42.53 43.04 44.22 44.16
51.60 51.49 51.43 51.46 46.93 44.34 45.54 49.71 47.89 45.79 33.82 40.93 42.02 45.17 45.62 44.15 41.16 47.31 47.63 43.96 38.63 35.49 35.28 34.05 38.05 37.85 35.71 35.95 36.89 31.04 38.11 37.62 35.72 32.87 26.52 35.73 25.52 33.67 36.25 37.77 39.70 40.95 40.76 41.75 42.87
51.04 51.24 51.21 50.91 43.42 44.17 48.69 47.84 45.87 45.73 24.26 43.09 41.33 46.20 43.17 40.84 42.46 44.36 47.63 42.87 37.57 37.33 35.70 34.10 34.63 34.79 34.11 36.24 39.33 34.75 39.34 36.38 35.70 32.60 29.23 31.16 25.26 30.41 36.46 35.27 36.65 38.66 40.28 41.52 45.09
51.06 50.89 50.95 48.05 44.70 46.93 48.42 46.24 46.51 33.55 26.12 38.72 42.95 41.27 39.24 41.43 42.23 43.71 43.41 44.10 42.58 36.68 36.40 35.69 39.20 37.99 37.63 40.44 39.95 40.03 35.16 33.95 32.17 27.92 21.67 29.37 27.51 30.20 31.93 34.04 36.38 39.23 43.50 45.30 46.06
50.40 50.55 48.72 48.75 44.03 46.48 46.32 44.45 32.97 27.84 40.91 36.68 37.30 39.67 38.07 38.79 40.41 41.37 39.19 36.12 32.45 27.72 28.29 34.18 34.81 37.82 41.60 35.43 36.80 33.48 27.12 20.12 19.72 20.27 20.78 29.85 26.90 30.68 36.10 38.96 39.85 41.78 43.70 44.47 44.96
49.62 49.24 48.71 48.98 45.85 47.10 43.77 37.75 28.50 36.46 35.73 40.86 39.25 38.52 35.65 38.70 38.26 38.85 36.85 32.92 38.19 34.99 28.57 26.84 25.79 34.99 39.78 35.38 31.70 30.79 28.30 19.72 16.49 19.64 22.15 31.39 24.37 29.25 37.41 42.70 44.22 44.76 44.37 45.03 44.46
48.30 44.47 46.32 48.64 49.95 44.38 39.96 29.55 30.46 34.71 39.06 37.57 37.67 34.67 34.62 38.27 36.67 35.87 33.94 34.40 36.95 35.88 28.30 25.32 29.12 38.62 39.87 39.02 36.35 30.79 26.10 30.31 24.71 25.13 20.44 24.70 30.02 35.57 39.01 41.60 42.66 41.94 43.41 42.17 43.57
42.20 44.04 45.96 49.71 46.71 43.71 36.32 34.82 36.43 42.51 41.61 39.01 32.83 36.17 30.64 33.08 33.35 32.88 33.00 39.15 38.03 39.89 36.86 32.66 27.06 36.09 38.18 38.40 37.89 33.65 35.14 25.22 21.28 14.28 16.23 23.79 25.73 27.59 33.38 36.18 40.36 40.40 40.57 42.37 44.13
43.10 42.65 47.65 45.56 46.19 40.61 31.20 34.36 39.68 43.43 43.08 38.38 35.31 33.49 33.86 32.65 32.89 32.24 33.99 37.63 40.46 38.59 37.47 33.34 30.16 30.78 34.89 32.00 29.41 29.53 27.81 29.98 26.61 28.46 22.14 20.65 24.09 33.86 35.75 38.57 38.65 39.71 41.29 42.34 43.85
40.33 37.68 47.60 46.06 37.57 34.27 32.85 37.74 42.21 41.65 43.49 40.30 38.65 37.35 35.14 35.16 33.14 33.77 33.66 36.80 41.31 39.69 33.31 35.11 30.62 27.24 30.32 36.83 37.42 34.23 30.80 29.98 21.82 23.05 25.91 24.87 25.77 38.21 38.42 39.28 40.05 39.92 42.23 43.67 43.97
37.80 39.33 46.87 43.88 28.23 29.95 34.79 38.53 40.26 40.28 39.62 38.92 36.96 37.70 37.28 33.41 30.09 35.21 36.06 40.32 40.37 37.65 34.65 35.12 29.76 25.95 26.24 30.07 34.12 32.40 33.44 32.23 30.81 30.65 25.90 24.22 26.26 38.37 39.54 40.38 41.60 40.46 42.80 43.90 44.27
38.56 32.51 35.98 36.69 35.09 31.77 32.05 34.13 36.12 42.60 40.44 39.73 37.88 37.58 34.38 32.07 33.86 32.46 34.06 39.14 39.57 38.36 43.62 40.70 32.54 30.70 25.18 28.08 29.69 30.25 33.73 33.80 30.54 28.14 26.68 28.11 30.29 35.34 37.57 38.87 41.19 41.98 44.54 46.47 45.20
35.37 32.65 34.63 28.35 30.31 31.96 32.77 34.90 35.12 35.12 38.30 37.66 34.97 35.43 32.70 28.33 30.43 30.79 34.12 34.68 37.99 40.76 37.72 35.11 28.07 31.26 32.97 34.76 34.90 33.83 33.66 34.58 32.90 32.18 27.47 30.26 30.87 35.09 37.40 38.89 41.51 44.67 45.84 46.71 45.32
35.76 33.44 34.83 32.40 34.46 32.90 33.90 33.09 33.74 35.42 34.97 33.98 32.01 34.71 33.78 29.51 31.40 30.28 31.96 31.34 31.74 35.88 33.19 34.15 29.44 34.46 30.56 34.23 34.39 32.77 34.70 34.93 35.12 34.67 33.47 33.41 32.34 38.21 41.01 41.98 42.94 44.20 44.79 45.57 46.71
38.83 39.03 36.53 32.41 31.18 29.40 29.93 33.10 34.01 34.80 36.58 37.76 34.91 32.30 31.59 33.84 36.61 37.22 37.00 36.61 35.63 33.65 31.91 30.75 29.21 29.10 26.48 32.92 31.92 27.79 32.61 33.66 33.83 35.19 35.01 30.50 35.02 39.37 39.45 40.77 40.99 41.71 42.88 45.01 45.51
MSLP
1019.41 1019.01 1018.58 1018.14 1017.75 1017.43 1017.10 1016.77 1016.47 1016.24 1015.97 1015.59 1015.16 1014.71 1014.30 1014.00 1013.60 1013.19 1012.37 1010.26 1010.12 1009.58 1009.98 1009.87 1009.44 1009.27 1009.27 1009.34 1008.86 1008.82 1009.75 1009.28 1008.13 1007.26 1006.46 1005.56 1005.56 1004.62 1004.28 1004.03 1003.75 1003.39 1003.09 1002.25 1001.59
1019.37 1018.95 1018.52 1018.05 1017.67 1017.30 1016.97 1016.65 1016.32 1016.00 1015.72 1015.38 1014.96 1014.54 1014.19 1013.86 1013.46 1012.41 1010.10 1009.65 1009.53 1009.73 1010.13 1009.85 1009.56 1009.48 1009.55 1009.25 1008.99 1009.25 1009.27 1008.60 1007.47 1006.82 1006.44 1005.48 1005.58 1005.25 1004.52 1003.81 1003.66 1003.18 1002.80 1002.39 1002.31
1019.22 1018.73 1018.30 1017.85 1017.43 1017.05 1016.72 1016.38 1016.13 1015.82 1015.46 1015.13 1014.75 1014.39 1014.07 1013.74 1013.20 1010.27 1009.15 1009.13 1009.66 1010.06 1010.25 1009.88 1009.74 1009.63 1009.57 1009.27 1009.09 1008.76 1008.52 1008.39 1007.61 1006.81 1006.64 1005.60 1005.36 1005.38 1004.84 1003.76 1004.12 1003.70 1003.12 1002.57 1002.55
1019.15 1018.65 1018.15 1017.69 1017.30 1016.93 1016.51 1016.08 1015.80 1015.51 1015.24 1014.92 1014.52 1014.20 1013.74 1013.59 1012.02 1009.33 1009.00 1009.29 1009.91 1010.19 1009.96 1009.67 1009.84 1009.87 1009.88 1009.62 1009.07 1009.08 1008.73 1008.74 1008.03 1006.94 1006.74 1005.98 1005.68 1005.19 1004.85 1003.67 1003.96 1003.82 1003.35 1002.95 1002.76
1019.04 1018.49 1018.02 1017.54 1017.04 1016.64 1016.27 1015.84 1015.48 1015.22 1014.92 1014.60 1014.29 1014.04 1013.62 1012.94 1010.77 1008.75 1009.04 1009.52 1010.02 1010.13 1009.86 1009.70 1009.79 1009.90 1010.00 1010.06 1009.71 1009.43 1009.17 1008.75 1008.03 1007.75 1007.31 1006.64 1005.28 1005.37 1003.90 1003.57 1003.88 1003.77 1003.46 1003.25 1003.01
1018.82 1018.30 1017.78 1017.28 1016.76 1016.26 1015.81 1015.48 1015.18 1014.93 1014.67 1014.32 1014.03 1013.92 1013.60 1011.88 1008.89 1008.78 1009.15 1009.62 1009.73 1009.92 1009.60 1009.56 1009.65 1009.66 1010.02 1010.13 1010.31 1009.98 1009.68 1009.07 1008.33 1007.93 1007.24 1006.62 1005.47 1005.34 1002.09 1003.92 1003.49 1003.38 1003.27 1003.08 1003.01
1018.68 1018.19 1017.61 1016.95 1016.38 1015.84 1015.38 1015.03 1014.71 1014.51 1014.27 1014.03 1013.83 1013.74 1013.24 1010.51 1009.28 1009.31 1009.23 1009.21 1009.18 1009.30 1009.26 1008.88 1009.12 1009.49 1009.95 1010.17 1010.27 1010.16 1010.02 1009.39 1008.73 1007.67 1006.88 1006.41 1005.50 1004.46 1004.03 1003.47 1003.38 1003.27 1003.23 1003.09 1002.85
1018.39 1017.86 1017.30 1016.64 1015.97 1015.36 1014.86 1014.46 1014.17 1013.96 1013.80 1013.74 1013.63 1013.58 1012.03 1009.57 1009.26 1009.31 1009.16 1009.09 1008.73 1008.53 1008.60 1008.52 1008.88 1009.47 1009.98 1010.29 1010.38 1010.59 1010.62 1009.98 1008.52 1007.86 1007.06 1006.83 1004.96 1004.63 1004.33 1003.91 1003.09 1003.06 1003.34 1003.00 1002.97
1018.06 1017.44 1016.91 1016.33 1015.64 1014.87 1014.27 1013.74 1013.34 1013.21 1013.30 1013.49 1013.64 1013.26 1011.06 1009.13 1009.01 1008.42 1008.55 1008.55 1008.44 1008.33 1008.36 1008.47 1008.96 1009.83 1010.27 1011.01 1011.64 1011.56 1011.55 1010.73 1009.48 1007.99 1007.55 1007.07 1006.28 1005.42 1004.85 1004.81 1004.42 1003.26 1002.91 1003.43 1003.40
1017.81 1017.16 1016.58 1016.02 1015.35 1014.54 1013.87 1012.97 1012.85 1012.98 1013.19 1013.26 1012.95 1012.92 1010.58 1009.50 1008.69 1008.33 1008.27 1008.25 1008.49 1008.65 1008.84 1009.14 1009.96 1010.60 1011.46 1011.93 1012.23 1012.05 1011.73 1011.09 1010.18 1009.08 1008.27 1007.49 1006.27 1006.24 1005.62 1005.33 1004.66 1004.29 1003.08 1001.93 1003.03
1017.54 1016.83 1016.23 1015.63 1014.95 1014.30 1013.62 1013.09 1013.32 1013.13 1012.88 1012.33 1011.99 1011.45 1010.28 1009.32 1008.49 1008.27 1008.07 1008.28 1008.59 1009.24 1009.91 1010.19 1010.83 1011.30 1011.39 1011.58 1011.54 1011.71 1011.56 1011.13 1010.44 1009.52 1008.91 1007.89 1006.40 1006.14 1005.84 1005.50 1005.23 1004.85 1004.36 1003.80 1002.56
1017.41 1016.61 1015.89 1015.19 1014.50 1014.02 1013.89 1013.57 1012.91 1012.76 1012.25 1011.26 1010.98 1010.71 1009.89 1009.80 1009.39 1008.36 1008.11 1008.77 1009.10 1009.84 1010.25 1010.90 1011.10 1010.73 1010.86 1010.89 1011.20 1011.38 1011.40 1011.02 1010.41 1009.95 1009.60 1008.66 1006.78 1006.44 1005.88 1005.38 1005.19 1005.09 1004.70 1004.11 1003.67
1017.19 1016.40 1015.68 1014.81 1014.16 1013.93 1013.81 1013.11 1012.30 1012.52 1012.51 1010.85 1010.15 1009.75 1009.21 1009.39 1009.10 1008.28 1008.41 1008.75 1009.41 1010.08 1010.57 1011.12 1010.71 1010.46 1010.64 1010.63 1010.90 1011.15 1011.30 1011.09 1011.00 1010.39 1009.83 1009.25 1006.65 1006.54 1005.80 1005.38 1005.11 1005.00 1004.77 1004.54 1004.16
1016.91 1016.16 1015.48 1014.56 1014.11 1014.19 1013.34 1012.55 1012.23 1012.33 1012.37 1010.65 1009.47 1008.55 1008.59 1008.64 1008.63 1007.91 1008.10 1008.92 1009.50 1010.04 1010.56 1010.84 1010.43 1010.44 1010.50 1010.70 1011.00 1011.15 1011.01 1011.10 1011.14 1011.19 1011.18 1010.16 1007.03 1006.58 1006.28 1005.79 1005.43 1005.21 1005.05 1004.59 1004.09
1016.52 1015.87 1015.25 1014.91 1014.51 1013.93 1012.88 1012.49 1012.17 1012.38 1011.67 1009.99 1008.89 1007.95 1008.38 1008.88 1008.53 1007.83 1007.75 1008.55 1009.30 1009.84 1010.69 1010.48 1010.33 1010.28 1010.41 1010.42 1010.75 1010.93 1010.89 1011.24 1011.50 1011.69 1011.59 1011.05 1010.22 1005.84 1005.92 1005.99 1005.80 1005.30 1005.19 1005.15 1004.83
1015.80 1015.27 1014.97 1014.79 1014.62 1013.16 1012.65 1012.35 1012.38 1012.78 1011.42 1009.94 1009.08 1008.75 1009.00 1008.87 1008.41 1008.03 1008.12 1008.53 1009.25 1010.08 1010.45 1010.38 1010.03 1009.94 1009.88 1010.07 1010.41 1010.65 1011.31 1011.81 1012.05 1012.48 1012.22 1011.02 1010.27 1005.05 1006.02 1005.75 1005.75 1005.63 1005.52 1005.42 1004.88
1015.08 1014.30 1014.34 1014.27 1013.64 1012.87 1012.62 1012.73 1013.10 1012.39 1011.07 1010.85 1010.26 1009.79 1009.76 1009.57 1009.21 1008.88 1008.94 1009.97 1010.48 1010.93 1011.01 1010.88 1010.40 1010.07 1010.11 1010.50 1010.72 1011.42 1012.29 1013.24 1013.45 1013.39 1012.52 1011.16 1010.58 1006.72 1006.26 1005.85 1005.72 1005.87 1005.63 1005.14 1004.72
1014.63 1013.83 1013.71 1013.32 1012.95 1013.12 1013.30 1013.46 1013.26 1012.42 1011.68 1011.09 1010.77 1010.44 1010.56 1010.46 1010.19 1010.03 1010.06 1010.79 1011.12 1011.43 1011.79 1011.77 1011.32 1010.59 1010.57 1010.85 1011.38 1011.79 1012.78 1014.00 1014.08 1013.99 1012.92 1011.57 1009.99 1006.81 1005.94 1005.70 1005.60 1005.71 1005.50 1005.07 1004.73
1014.41 1014.02 1013.75 1012.77 1012.66 1013.21 1014.05 1014.03 1013.46 1012.43 1011.65 1011.29 1011.12 1011.11 1011.35 1011.23 1011.24 1010.96 1010.92 1011.11 1011.49 1011.82 1012.42 1012.69 1011.91 1011.00 1010.77 1010.87 1011.49 1011.85 1012.62 1013.01 1013.92 1013.93 1013.41 1011.50 1009.15 1007.29 1005.73 1005.68 1005.47 1005.34 1005.21 1004.84 1004.34
1015.39 1014.88 1013.82 1012.60 1012.60 1013.35 1014.34 1014.36 1013.40 1012.34 1011.60 1011.28 1011.57 1011.71 1011.88 1011.89 1011.89 1011.71 1011.29 1011.10 1011.46 1011.73 1012.11 1012.70 1012.61 1011.64 1011.30 1011.17 1011.09 1011.47 1012.15 1013.32 1014.44 1014.35 1013.22 1011.14 1009.37 1007.49 1006.20 1005.57 1005.74 1005.22 1004.92 1004.51 1003.94
1015.87 1015.18 1013.39 1012.86 1012.92 1014.12 1015.07 1014.65 1013.34 1012.32 1011.79 1011.44 1011.61 1011.88 1012.12 1012.28 1012.23 1012.08 1011.55 1011.25 1011.19 1011.68 1012.18 1012.82 1013.40 1012.64 1012.01 1011.60 1011.45 1011.84 1012.33 1013.20 1014.03 1013.96 1013.05 1011.21 1008.53 1006.50 1006.10 1005.86 1005.36 1005.08 1004.77 1004.64 1003.69
1017.09 1016.11 1013.76 1013.06 1014.37 1015.68 1015.58 1014.70 1013.56 1012.44 1011.98 1011.53 1011.57 1011.89 1012.26 1012.43 1012.38 1012.20 1011.71 1011.24 1011.30 1011.69 1012.32 1012.93 1013.47 1013.38 1012.30 1011.02 1011.25 1011.61 1012.18 1012.88 1013.62 1013.41 1012.56 1011.13 1007.35 1006.06 1005.70 1005.25 1004.99 1004.77 1004.60 1004.04 1003.21
1018.37 1017.12 1014.55 1014.11 1015.81 1016.62 1015.96 1014.96 1013.88 1013.02 1012.74 1012.45 1012.47 1012.58 1012.66 1012.78 1012.92 1012.39 1011.84 1011.55 1011.63 1011.94 1012.31 1012.95 1013.57 1013.68 1012.31 1011.62 1011.32 1011.36 1011.89 1012.24 1012.59 1012.76 1011.78 1010.93 1006.87 1005.54 1005.54 1005.18 1004.57 1004.53 1004.11 1003.88 1002.87
1018.90 1018.46 1017.14 1016.87 1017.27 1017.36 1017.12 1015.62 1014.38 1013.35 1013.20 1013.14 1013.06 1013.14 1013.47 1013.47 1013.27 1012.90 1012.48 1011.93 1011.82 1012.01 1012.23 1012.60 1012.95 1013.44 1012.92 1012.08 1011.92 1011.54 1011.31 1011.42 1011.73 1011.35 1010.13 1008.74 1006.41 1005.48 1005.17 1004.81 1003.97 1003.87 1003.69 1003.46 1002.83
1019.32 1019.91 1019.73 1018.97 1018.53 1018.38 1017.80 1016.48 1015.33 1014.40 1013.80 1013.61 1013.56 1013.74 1014.14 1014.29 1013.96 1013.53 1012.95 1012.56 1012.07 1011.87 1011.99 1012.30 1012.68 1012.86 1012.41 1011.91 1011.38 1010.67 1010.07 1009.67 1009.77 1009.22 1009.14 1007.48 1006.52 1005.01 1004.73 1004.24 1003.75 1003.49 1003.23 1002.79 1001.95
1020.16 1020.38 1020.01 1019.61 1019.11 1018.64 1017.68 1016.80 1016.12 1015.48 1015.04 1014.36 1014.27 1014.34 1014.40 1014.47 1014.04 1013.65 1013.49 1013.19 1012.54 1011.98 1011.98 1012.41 1012.51 1012.48 1012.02 1011.51 1010.60 1009.53 1008.38 1007.81 1007.49 1007.33 1007.11 1006.36 1005.33 1004.49 1004.32 1003.93 1003.68 1003.24 1002.87 1002.47 1002.07
1020.69 1020.57 1020.51 1019.86 1019.45 1019.09 1017.93 1017.18 1016.69 1016.56 1015.06 1014.54 1014.49 1014.45 1014.23 1013.82 1013.48 1013.17 1012.74 1012.32 1012.04 1011.89 1012.15 1012.59 1012.67 1012.79 1011.25 1010.74 1010.15 1008.47 1006.76 1006.36 1005.88 1005.59 1005.58 1005.38 1004.57 1004.41 1004.32 1003.84 1003.87 1003.26 1002.60 1002.39 1001.97
Wind_Speed
17 17 17 17 17 17 17 17 17 16 15 15 15 15 16 16 16 3 6 11 8 7 3 6 3 4 1 3 3 3 2 5 5 4 3 4 6 2 4 3 6 7 4 8 4
18 18 18 18 18 18 17 17 17 16 15 15 15 16 16 16 6 7 12 10 10 1 3 2 1 2 2 4 3 4 5 8 4 3 6 10 4 9 7 14 6 10 9 7 7
19 19 20 20 20 18 18 18 17 16 15 15 15 16 16 12 4 5 8 6 5 3 3 1 3 1 2 2 3 3 6 2 5 5 6 11 10 10 8 15 5 11 10 9 4
20 20 21 21 21 20 20 18 17 16 15 15 15 16 16 1 3 3 8 8 7 4 3 1 0 1 3 4 3 4 4 3 2 7 9 13 11 14 17 20 7 8 10 6 7
19 20 20 21 22 21 20 19 18 16 15 14 14 12 4 2 8 5 9 8 4 3 3 0 3 1 1 3 5 3 3 6 7 6 7 11 14 15 24 17 12 9 9 8 8
20 21 22 22 22 21 20 19 18 16 15 14 12 9 2 2 4 4 6 4 5 4 2 4 4 4 3 1 1 3 3 6 4 6 5 7 13 5 33 4 9 8 8 9 9
21 20 22 23 22 22 21 19 17 15 13 12 9 3 1 10 3 7 5 3 4 6 3 4 5 2 3 5 1 2 5 6 5 4 6 7 13 21 18 10 9 12 6 8 9
22 21 22 23 23 22 21 20 18 15 12 10 5 1 7 5 2 4 3 6 7 7 2 4 2 3 3 1 7 5 5 4 5 5 6 6 16 10 6 8 15 11 8 8 9
22 21 22 24 23 23 22 22 18 13 8 4 2 1 8 9 1 6 7 4 4 4 3 2 4 2 4 4 5 6 1 1 6 6 5 4 4 7 12 6 9 13 13 7 6
22 21 22 22 24 22 23 19 3 1 2 5 4 2 4 3 4 3 3 3 4 3 5 5 5 3 4 5 3 4 2 3 6 6 7 12 15 7 7 8 9 7 12 17 11
23 23 23 23 22 19 12 3 6 4 2 5 3 3 5 7 5 2 3 1 2 6 3 3 5 2 5 8 6 2 3 5 6 7 7 11 18 14 7 5 7 8 10 9 17
25 24 24 23 22 19 2 3 3 5 7 7 7 7 9 1 4 7 2 2 2 1 2 6 2 6 4 4 4 3 2 4 6 6 10 9 23 18 12 6 7 7 8 10 9
24 24 24 23 24 1 1 3 7 2 2 8 4 4 6 9 6 6 6 3 2 1 1 3 7 6 3 4 5 2 3 4 7 7 8 8 23 10 4 3 5 6 6 6 8
24 24 23 24 3 4 3 3 7 2 4 3 2 5 3 3 4 7 6 6 2 7 3 4 4 1 6 4 3 3 4 5 9 6 3 3 16 6 3 8 6 7 7 10 11
25 24 21 11 2 1 3 7 5 5 5 3 1 3 2 4 2 3 4 3 9 7 6 10 4 5 3 4 5 8 6 6 6 6 3 4 6 3 7 7 9 8 8 7 7
26 23 17 1 0 6 7 6 4 6 3 3 3 4 3 4 6 4 4 3 1 2 3 7 4 4 7 5 6 3 4 4 4 2 2 9 8 17 4 4 4 4 5 6 10
27 23 5 1 3 3 5 4 5 5 5 5 4 6 3 4 6 4 3 6 0 2 3 4 2 1 2 1 5 6 6 5 5 3 5 2 3 15 12 10 5 3 8 9 9
26 14 2 4 3 6 4 5 6 2 2 0 3 5 3 7 4 6 3 3 5 3 1 1 6 0 2 3 5 5 7 6 6 5 10 10 7 9 5 5 4 5 9 10 11
17 4 1 4 2 3 6 6 4 2 3 2 6 2 3 5 3 5 3 3 2 2 3 1 5 3 8 2 4 4 4 4 2 2 1 7 9 10 9 7 5 8 8 10 14
3 4 4 4 4 5 6 1 2 3 6 2 1 0 2 2 2 5 3 3 5 4 4 3 6 8 4 1 6 6 3 3 3 3 6 6 7 10 9 11 7 12 11 13 17
4 3 4 5 4 6 4 4 4 6 7 3 5 4 4 2 2 3 6 1 5 4 3 2 4 5 3 4 6 3 2 1 3 4 4 5 6 7 8 8 12 10 9 13 19
3 2 4 3 5 1 1 3 5 4 6 5 4 6 5 3 4 4 6 5 2 2 2 3 3 4 9 14 7 6 6 4 4 5 5 3 14 7 9 9 10 9 10 14 18
3 3 4 5 3 3 6 5 3 2 3 5 4 4 4 3 3 5 3 3 5 2 1 3 1 4 6 3 4 2 4 5 2 2 8 7 12 5 7 12 11 8 8 12 23
3 5 6 6 1 3 4 5 4 4 2 1 3 3 4 3 4 5 3 4 3 2 10 5 6 8 10 10 4 12 15 11 7 6 8 13 24 21 18 13 13 7 7 12 21
4 1 2 5 3 3 2 3 4 3 4 4 2 2 3 4 4 7 6 5 8 9 6 9 7 7 9 14 17 20 21 21 19 18 14 19 21 21 12 11 12 6 7 12 23
2 3 4 4 4 4 2 2 3 2 3 5 2 7 6 7 9 13 10 5 8 6 3 3 4 3 12 18 20 20 18 19 20 20 19 18 20 9 5 5 5 9 12 12 15
3 2 3 3 3 1 4 1 4 7 6 5 3 4 6 11 7 12 12 12 10 7 6 4 2 5 10 3 10 11 8 6 5 9 9 9 12 3 6 8 7 14 13 8 13
Wind_Direction
345 341 338 336 334 332 331 330 329 327 325 324 322 318 319 322 318 293 235 221 195 234 298 286 282 260 216 244 238 135 123 226 236 265 146 312 1 227 294 286 316 329 4 327 45
344 342 338 336 334 332 329 327 326 325 323 322 319 315 320 324 315 264 248 238 220 39 298 305 296 23 192 224 209 178 167 224 241 254 325 291 317 303 332 322 314 325 342 24 61
344 342 339 336 332 329 327 324 323 322 320 320 316 314 319 315 300 259 202 210 197 211 247 342 325 292 204 220 221 195 230 218 289 319 328 301 307 306 313 290 331 308 314 339 51
341 339 338 336 331 327 324 322 320 319 318 316 313 317 318 148 144 267 175 186 186 197 286 174 217 171 200 224 256 258 235 273 293 313 306 286 310 286 282 272 296 307 295 300 309
338 336 333 330 329 325 321 318 315 314 311 310 311 322 339 316 253 252 169 171 164 175 236 202 61 42 193 299 335 217 340 349 333 311 284 288 287 281 274 278 285 273 289 289 281
334 333 332 330 328 325 321 316 310 307 302 301 306 322 307 287 255 298 135 154 209 187 243 178 179 228 133 276 157 304 277 290 292 264 243 259 282 306 274 11 296 289 274 271 249
335 331 331 332 329 325 320 313 305 299 293 292 300 279 316 236 11 11 156 230 187 194 238 209 177 89 148 323 220 285 333 338 219 233 252 223 260 247 278 311 283 294 288 282 258
336 330 331 333 330 327 320 313 302 291 280 278 279 212 250 238 265 293 161 287 244 202 214 237 122 132 150 258 1 8 45 21 284 315 249 172 261 289 310 332 311 332 312 300 276
331 329 331 335 331 325 318 309 299 279 256 232 167 183 274 311 241 234 175 237 307 300 304 251 85 137 35 74 7 11 68 279 303 288 271 209 298 316 321 332 315 312 311 315 323
328 329 331 334 331 323 323 313 301 55 157 172 245 335 281 322 262 257 182 225 248 321 2 48 51 68 33 63 275 283 333 267 268 285 300 292 285 256 268 283 285 301 311 316 300
330 329 333 332 328 328 340 23 20 3 191 222 208 252 277 318 298 251 276 293 87 49 18 0 70 216 234 204 236 260 272 262 275 288 324 300 300 305 276 256 281 287 290 291 302
330 328 330 328 326 326 117 59 235 231 312 243 237 252 264 89 309 289 90 176 95 221 17 15 297 239 272 274 188 174 186 277 270 343 311 301 290 294 291 257 235 255 281 291 300
328 327 329 326 321 22 296 255 300 311 57 299 205 195 227 147 226 258 153 182 197 223 128 155 252 324 324 315 356 357 262 258 275 294 253 279 278 264 277 279 271 269 268 290 283
329 328 329 326 20 323 287 330 322 132 63 275 262 272 166 160 261 215 197 161 223 208 208 227 264 301 311 268 116 312 253 284 306 338 296 46 288 187 216 260 279 288 268 265 277
329 329 328 324 243 19 284 334 299 58 72 178 163 246 73 177 304 280 168 111 213 205 120 238 209 281 262 226 176 235 248 264 269 268 301 207 266 151 315 283 260 273 298 330 328
329 328 331 97 132 245 316 319 62 49 44 20 51 345 13 247 253 252 179 79 116 203 247 252 237 190 209 221 205 289 315 317 330 75 260 216 194 285 219 257 320 281 306 308 306
330 327 313 206 244 339 329 47 44 87 326 13 325 326 4 305 357 343 137 38 321 327 318 327 248 345 103 325 352 55 51 324 330 335 228 297 301 261 298 296 236 258 277 278 270
327 326 186 226 323 359 37 54 71 61 2 335 296 320 110 7 1 359 48 137 29 63 47 274 318 182 108 181 219 241 167 166 259 254 279 293 236 262 235 213 228 238 263 274 286
326 339 341 266 200 83 65 54 178 319 255 275 326 37 350 334 4 8 1 137 149 95 141 270 271 299 298 304 126 262 219 207 205 281 7 234 271 299 272 247 292 292 295 298 305
15 350 289 311 97 64 75 250 262 330 293 173 130 251 285 271 356 12 281 173 158 181 152 218 284 241 260 23 272 174 191 277 3 287 265 274 267 246 277 280 308 298 299 311 311
21 33 268 343 61 47 110 244 290 323 330 207 212 246 260 258 216 243 248 257 178 184 177 163 179 284 22 217 206 309 304 181 158 179 243 282 247 224 265 269 267 272 297 302 312
353 16 317 30 49 21 108 291 292 293 341 296 198 202 196 235 258 238 233 206 125 134 197 200 159 272 246 273 235 224 235 178 137 264 241 255 273 250 241 253 271 270 285 316 328
7 281 322 66 90 328 316 297 255 299 356 13 316 346 0 234 270 227 242 150 110 89 175 186 249 304 313 358 1 122 188 197 187 289 229 254 265 233 262 285 266 254 274 320 338
44 355 329 32 25 89 353 277 299 318 178 311 274 75 13 310 251 278 264 284 313 271 280 265 191 217 247 260 229 281 269 250 213 239 253 241 274 288 288 281 282 244 269 309 332
33 320 178 305 333 345 248 273 289 338 341 335 301 166 198 267 298 256 262 297 289 272 283 161 217 206 243 264 273 271 273 271 255 246 246 270 269 278 284 292 300 283 289 318 320
63 32 355 287 298 313 247 221 272 346 259 268 259 317 257 222 212 269 274 236 238 288 266 176 261 254 279 273 266 278 273 262 255 256 260 262 263 255 283 302 308 299 313 305 305
335 358 104 268 299 340 244 153 305 329 267 217 216 279 261 258 249 263 243 242 236 209 203 178 189 299 276 309 315 278 245 248 241 231 234 251 261 279 296 297 322 313 306 316 334